Bodensee (Kressbronn): 4,4°C  -  Teich der Wetterzentrale Bad Schussenried: 4,4°C  
24.01.2020Höhe
ü. NN
ZeitTemperatur (°C)Nieder-
schlag
Luft-
feuchte
Luft-
druck
Wind
StationaktuellMinimumMaximumaktuellMaximum
Aldingen654 m07:26-4,5-4,9 (08:45)-3,9 (14:33)0,0 l/m²93%1028,70,0 km/h (0 Bft) S-SW16,7 km/h (3 Bft) O-SO (01:40)
Allmannsweiler625 m07:25-4,1-4,1 (05:45)-3,2 (01:40)0,0 l/m²97%1028,01,6 km/h (1 Bft) W-SW17,7 km/h (3 Bft) W-SW (04:20)
Allmendingen541 m07:25-2,8-3,0 (02:00)-2,4 (13:30)0,0 l/m²93%1026,96,4 km/h (2 Bft) SW24,1 km/h (4 Bft) SW (01:45)
Altshausen574 m07:25-3,4-4,9 (05:19)-2,7 (00:23)0,0 l/m²86%1026,28,0 km/h (2 Bft) S-SO17,7 km/h (3 Bft) SW (00:33)
Amstetten-Reutti663 m07:25-5,6-5,8 (07:00)-2,8 (14:05)0,0 l/m²95%1026,40,0 km/h (0 Bft) S-SO12,9 km/h (3 Bft) O (13:05)
Amtzell-Grenis677 m07:25-4,9-4,9 (07:05)-2,9 (00:50)0,0 l/m²81%1029,40,0 km/h (0 Bft) N4,8 km/h (1 Bft) S-SO (00:00)
Aulendorf570 m07:25-2,9-3,2 (04:33)-2,5 (01:14)0,0 l/m²95%1027,54,8 km/h (1 Bft) SW14,5 km/h (3 Bft) S (00:36)
Bad Krozingen233 m07:25-3,4-3,4 (07:25)-1,8 (23:25)0,0 l/m²94%1028,01,6 km/h (1 Bft) O-SO9,9 km/h (2 Bft) O (23:45)
Bad Saulgau595 m07:25-5,1-5,1 (07:25)-2,8 (14:30)0,0 l/m²93%1026,80,0 km/h (0 Bft) W-NW17,7 km/h (3 Bft) N-NW (01:35)
Bad Saulgau, Bernhauser Weg594 m07:23-4,9-4,9 (07:20)-2,4 (02:03)0,0 l/m²95%1029,27,9 km/h (2 Bft) S-SO14,5 km/h (3 Bft) N (00:25)
Bad Saulgau-Lampertsweiler627 m07:25-4,6-4,6 (05:35)-3,2 (01:45)0,0 l/m²92%1030,39,7 km/h (2 Bft) S20,9 km/h (4 Bft) S (02:05)
Bad Schussenried572 m07:25-2,9-3,1 (04:35)-2,6 (00:55)0,0 l/m²97%1026,411,3 km/h (2 Bft) SW20,9 km/h (4 Bft) SW (01:15)
Bergatreute615 m07:25-3,1-3,1 (07:20)-2,0 (01:45)0,0 l/m²98%1027,44,8 km/h (1 Bft) SW17,7 km/h (3 Bft) S-SW (00:55)
Biberach (Riss), Boehringer533 m07:30-2,4-2,9 (00:40)-1,8 (02:30)0,0 l/m²96%1025,18,6 km/h (2 Bft) SW28,8 km/h (5 Bft) W-SW (00:30)
Biberach (Riss), Realschule553 m07:25-3,0-3,3 (00:05)-2,6 (01:35)0,0 l/m²96%1028,417,7 km/h (3 Bft) S29,0 km/h (5 Bft) SW (04:50)
Burgrieden523 m07:25-3,7-3,7 (07:25)-2,6 (00:00)0,0 l/m²89%1027,16,4 km/h (2 Bft) SW24,1 km/h (4 Bft) SW (03:30)
Burgrieden-Hochstetten510 m07:25-3,4-3,4 (08:00)-2,1 (13:30)0,0 l/m²93%1027,43,2 km/h (1 Bft) W-SW20,9 km/h (4 Bft) O (10:35)
Ebersbach579 m07:25-3,2-3,4 (04:05)-2,7 (00:35)0,0 l/m²97%1028,816,1 km/h (3 Bft) S20,9 km/h (4 Bft) S (00:35)
Ebersbach-Boos605 m07:25-3,8-4,0 (05:30)-3,1 (02:05)0,0 l/m²97%1028,60,0 km/h (0 Bft) S9,7 km/h (2 Bft) SW (00:50)
Ebersbach-Menzenweiler661 m07:25-3,7-3,9 (04:15)-3,3 (01:00)0,0 l/m²98%1028,56,4 km/h (2 Bft) S-SO17,7 km/h (3 Bft) SW (00:40)
Ehingen535 m01:00-3,1-3,1 (01:00)-2,6 (00:00)0,0 l/m²90%1028,18,6 km/h (2 Bft) S12,9 km/h (3 Bft) S (00:15)
Erlenmoos645 m07:25-3,0-3,5 (05:10)-2,3 (01:55)0,0 l/m²90%1027,44,8 km/h (1 Bft) W-SW22,5 km/h (4 Bft) SW (01:30)
Ertingen569 m07:25-3,3-3,4 (05:55)-2,7 (02:25)0,0 l/m²95%1027,811,3 km/h (2 Bft) W-SW14,5 km/h (3 Bft) S-SO (00:30)
Friedrichshafen405 m07:25-1,1-1,2 (08:00)-0,2 (15:05)0,0 l/m²91%1028,60,0 km/h (0 Bft) O14,5 km/h (3 Bft) N (09:15)
Günzburg443 m07:25-1,8-1,9 (02:55)-1,6 (00:00)0,0 l/m²89%1024,13,2 km/h (1 Bft) N19,3 km/h (3 Bft) W (03:50)
Hochdorf-Appendorf537 m07:25-2,8-3,0 (00:05)-2,4 (01:20)0,0 l/m²77%1027,333,8 km/h (5 Bft) S37,0 km/h (5 Bft) S-SO (01:50)
Höchsten802 m07:25-2,5-4,8 (01:50)-2,3 (07:15)0,0 l/m²93%1026,40,0 km/h (0 Bft) S-SO4,8 km/h (1 Bft) S-SO (00:55)
Horgenzell618 m07:25-3,7-5,1 (00:00)0,0 (00:05)0,0 l/m²96%1026,99,7 km/h (2 Bft) SW24,1 km/h (4 Bft) W-SW (01:30)
Hoßkirch632 m07:25-6,8-6,8 (07:25)-3,1 (01:45)0,0 l/m²94%1027,10,0 km/h (0 Bft) NW16,1 km/h (3 Bft) S-SW (00:20)
Isny, Am Dreifingerbach695 m07:25-5,8-6,3 (04:40)-3,4 (00:00)0,0 l/m²94%1027,60,0 km/h (0 Bft) S-SW8,0 km/h (2 Bft) S-SW (00:55)
Isny, Weidachweg706 m07:25-4,2-6,2 (05:35)-2,8 (00:00)0,0 l/m²87%1029,76,4 km/h (2 Bft) SO14,5 km/h (3 Bft) SW (00:30)
Kappel-Grafenhausen163 m07:20-2,9-2,9 (07:20)-1,0 (13:30)0,0 l/m²92%1025,40,0 km/h (0 Bft) N16,1 km/h (3 Bft) S (20:10)
Kirchberg an der Iller584 m07:25-3,3-3,3 (08:00)-2,4 (20:10)0,0 l/m²87%1016,20,0 km/h (0 Bft) W-SW14,6 km/h (3 Bft) W-NW (15:30)
Kißlegg-Staibshof709 m07:25-4,7-4,7 (07:25)-2,7 (00:55)0,0 l/m²97%1028,30,0 km/h (0 Bft) SW20,9 km/h (4 Bft) SW (01:50)
Kressbronn398 m07:26-2,3-2,3 (06:34)-0,4 (00:10)0,0 l/m²92%1027,46,4 km/h (2 Bft) NO12,9 km/h (3 Bft) NO (02:42)
Kreuzthal-Steinberg-Alpe930 m07:203,4-4,9 (00:20)3,7 (06:40)0,0 l/m²82%1027,01,8 km/h (1 Bft) SW24,8 km/h (4 Bft) W-NW (01:40)
Kreuzthal-Steinberggipfel1040 m07:203,6-0,2 (00:10)3,9 (07:10)-74%1027,019,8 km/h (4 Bft) SW45,7 km/h (6 Bft) W-SW (02:10)
Kristberg im Montafon (AT)1425 m07:241,91,7 (04:36)4,4 (00:00)0,0 l/m²40%1033,45,0 km/h (1 Bft) N-NO8,6 km/h (2 Bft) N (05:50)
Laupheim500 m07:25-3,4-3,4 (07:05)-2,3 (03:05)0,0 l/m²90%1026,76,4 km/h (2 Bft) W20,9 km/h (4 Bft) SW (03:00)
Leutkirch-Heggelbach670 m07:25-4,3-4,3 (06:20)-2,6 (01:00)0,0 l/m²94%1027,00,0 km/h (0 Bft) SW14,5 km/h (3 Bft) SW (02:25)
Lindau-Stadt412 m07:25-2,7-2,7 (08:00)-0,4 (14:40)0,0 l/m²93%1028,11,6 km/h (1 Bft) O11,3 km/h (2 Bft) SW (19:00)
Maierhöfen im Allgäu733 m07:25-6,6-6,7 (06:15)-3,2 (00:00)0,0 l/m²94%1028,00,0 km/h (0 Bft) SW8,0 km/h (2 Bft) S-SW (00:10)
Maselheim543 m07:25-3,2-3,4 (08:05)-2,8 (14:50)0,0 l/m²93%1027,411,3 km/h (2 Bft) W-SW24,1 km/h (4 Bft) W-SW (04:15)
Maselheim-Sulmingen548 m07:25-3,2-3,3 (08:00)-2,7 (14:55)0,0 l/m²95%1028,614,5 km/h (3 Bft) W-SW20,9 km/h (4 Bft) O (10:25)
Mietingen-Baltringen528 m07:25-3,1-3,2 (05:05)-2,4 (02:10)0,0 l/m²92%1028,916,1 km/h (3 Bft) W-NW19,3 km/h (3 Bft) W-SW (02:45)
Mindelheim-Apfeltrach620 m07:26-7,0-7,1 (07:14)-3,1 (01:18)0,0 l/m²92%1028,00,0 km/h (0 Bft) N-NO14,5 km/h (3 Bft) SW (00:19)
Mittelbiberach577 m07:23-3,4-3,5 (00:00)-2,8 (01:27)0,0 l/m²94%1028,617,7 km/h (3 Bft) SW24,1 km/h (4 Bft) SW (01:59)
Neresheim552 m07:00-3,9-3,9 (07:00)-1,6 (00:00)0,0 l/m²97%1023,55,0 km/h (1 Bft) W10,4 km/h (2 Bft) S (02:00)
Neukirch570 m07:25-3,7-3,7 (08:20)-1,4 (13:45)0,0 l/m²96%1028,11,6 km/h (1 Bft) SW17,7 km/h (3 Bft) NO (08:55)
Ochsenhausen, Birkenstraße613 m07:25-2,8-2,9 (08:00)-2,2 (02:20)0,0 l/m²89%1027,70,0 km/h (0 Bft) W-SW0,0 km/h (0 Bft) N-NW (08:00)
Ochsenhausen, Unt. Wiesen575 m07:25-2,7-3,1 (00:05)-2,4 (02:10)0,0 l/m²94%1028,89,7 km/h (2 Bft) SW25,7 km/h (4 Bft) S-SW (00:55)
Opfenbach-Göritz561 m07:25-4,5-4,5 (06:46)-2,4 (01:00)0,0 l/m²93%1026,20,0 km/h (0 Bft) S-SO11,2 km/h (2 Bft) N (01:36)
Ostrach619 m07:25-4,0-4,0 (07:25)-1,9 (01:35)0,0 l/m²94%1026,50,0 km/h (0 Bft) SW19,3 km/h (3 Bft) SO (00:10)
Ravensburg, Goethestraße428 m07:35-1,4-1,5 (04:00)-0,7 (00:25)0,0 l/m²93%1027,212,9 km/h (3 Bft) S-SW22,5 km/h (4 Bft) SW (01:55)
Ravensburg, Springerstraße441 m07:25-1,0-1,2 (03:40)-0,2 (00:25)0,0 l/m²77%1025,54,3 km/h (1 Bft) W8,2 km/h (2 Bft) O-NO (07:15)
Ravensburg-Wernsreute511 m07:25-2,6-2,8 (08:00)-2,1 (15:05)0,0 l/m²95%1030,611,3 km/h (2 Bft) S22,5 km/h (4 Bft) N (10:00)
Reichenbach an der Fils343 m07:25-4,0-4,0 (07:20)-0,6 (00:00)0,0 l/m²87%1028,90,0 km/h (0 Bft) W9,7 km/h (2 Bft) W-SW (00:45)
Reinstetten559 m07:25-2,8-3,0 (05:00)-2,4 (01:55)0,0 l/m²94%1027,89,7 km/h (2 Bft) S-SW25,7 km/h (4 Bft) N (02:45)
Riedlingen530 m07:25-3,0-3,3 (00:10)-2,7 (02:15)0,0 l/m²95%1027,60,0 km/h (0 Bft) S-SW16,1 km/h (3 Bft) SW (01:30)
Rottweil-Hausen681 m07:23-3,9-4,7 (02:58)-3,9 (00:00)0,0 l/m²91%1028,413,0 km/h (3 Bft) SW22,7 km/h (4 Bft) N (00:45)
Schemmerhofen520 m07:25-3,1-3,2 (07:25)-2,1 (02:25)0,0 l/m²95%1026,96,4 km/h (2 Bft) SW20,9 km/h (4 Bft) SW (03:25)
Silbertal im Montafon (AT)884 m07:25-3,5-6,1 (00:03)-3,3 (06:42)0,0 l/m²91%1033,60,0 km/h (0 Bft) NW1,8 km/h (1 Bft) N (00:04)
Tettnang466 m07:25-2,3-2,4 (06:15)-1,0 (00:10)0,0 l/m²94%1028,20,0 km/h (0 Bft) SO14,5 km/h (3 Bft) W-SW (01:15)
Tuttlingen662 m07:21-5,6-5,6 (06:16)-4,2 (00:01)0,0 l/m²95%1027,90,0 km/h (0 Bft) SW4,3 km/h (1 Bft) N-NO (01:06)
Tuttlingen, Möhringer-Vorstadt711 m07:25-5,8-5,8 (08:15)-4,1 (14:25)0,0 l/m²95%1028,11,6 km/h (1 Bft) S12,9 km/h (3 Bft) N-NW (12:05)
Ummendorf547 m07:25-2,8-3,1 (00:05)-2,4 (01:40)0,0 l/m²87%1028,717,7 km/h (3 Bft) SW25,7 km/h (4 Bft) SW (06:45)
Ummendorf-Fischbach558 m07:25-2,8-3,2 (00:00)-2,5 (01:45)0,0 l/m²86%1028,514,5 km/h (3 Bft) S-SW22,5 km/h (4 Bft) S-SO (02:25)
Waldburg707 m07:25-3,9-3,9 (06:55)-2,7 (00:40)0,0 l/m²96%1027,70,0 km/h (0 Bft) N14,5 km/h (3 Bft) N (01:50)
Waltenhofen im Allgäu720 m07:25-4,3-6,3 (03:50)-3,3 (06:45)0,0 l/m²91%1027,41,6 km/h (1 Bft) SO9,7 km/h (2 Bft) SO (06:05)
Wangen, Hans-Schnitzer-Weg569 m07:25-3,1-3,1 (06:40)-1,2 (00:00)0,0 l/m²65%1026,70,0 km/h (0 Bft) SO9,7 km/h (2 Bft) S (01:00)
Wangen, Südring548 m07:23-3,4-3,4 (06:40)-1,6 (01:00)0,0 l/m²94%1027,43,2 km/h (1 Bft) SW14,5 km/h (3 Bft) N (02:08)
Weingarten500 m07:25-1,7-1,9 (04:20)-1,1 (00:25)0,0 l/m²94%1027,612,9 km/h (3 Bft) SW19,3 km/h (3 Bft) SW (02:35)
Winterlingen785 m07:15-6,7-7,0 (06:45)-4,9 (00:00)0,0 l/m²95%1026,42,2 km/h (1 Bft) N-NW7,9 km/h (2 Bft) S-SW (00:00)
Vorhersagegebiet der WWS
Roland Roth

Der Wetterbericht für Oberschwaben und Schwaben, den Bodensee, das Allgäu, den Linzgau, den Hegau, die Baar und die Schwäbische Alb

erstellt von Roland Roth - ausgegeben für Freitag früh

Glättewarnung

Vor allem auf Nebenstrecken, Brücken und an Waldrändern weiterhin tückische Glättegefahr durch überfrorene Nässe und Reif.

Neue Wetterstationen

Wir begrüßen mit 'OPFENBACH-GÖRITZ (Bayern)' (Betreiber der Station: Manfred Wolfrum) die 79. und mit ROTTWEIL-HAUSEN (Betreiber der Station: Wolfgang Keller) die 80. Wetterstation im Messnetz der Wetterwarte Süd. Herzlich willkommen!

An dieser Stelle wieder einmal vielen Dank an unseren Technischen Leiter, Timo Riedel aus Isny, für dessen unermüdlichen und erfolgreichen Einsatz zur Mehrung der Wetter- und Niederschlagsstationen.

Machen auch Sie mit! Weitere Informationen und Unterstützung dazu erhalten Sie auf unserer Internetseite sowie von Timo Riedel unter 07562/616276 (ab 17.30 Uhr) bzw. per Mail an t.riedel@wetterwarte-sued.com

Heute darf man auch in den Nebelregionen mal wieder auf Sonnenschein hoffen

Vorhersage für Freitag, den 24. Januar 2020

Kalte Luft ist schwerer als warme Luft und kann weniger Wasserdampf aufnehmen. Diese Eigenschaften haben gerade für unsere Region im Winter große Auswirkungen und teilen diese nicht selten in zwei Wetterzonen. Während man vor allem in Lagen um die 1000 Meter seit Tagen milde Luft mit Temperaturen nahe 10 Grad und strahlenden Sonnenschein genießen darf, versinken díe Niederungen im feucht-kalten Dauergrau.

Diese Temperaturumkehr, Inversion genannt, löst sich nun allmählich auf, sodass man heute auch in den Nebelregionen auf Sonnenschein hoffen darf.

Mit mehr Sonnenschein werden 5 bis 8 Grad, örtlich sogar 10 Grad erreicht. Bei sehr zögernder Nebelauflösung geht es dagegen nur knapp über den Gefrierpunkt.

Weitere Aussichten:

Bei ähnlichen Temperaturen Mix aus Nebel, Wolken und etwas Sonnenschein.

Am Sonntag und Montag mancherorts auch ein wenig Regen.

Ab Dienstag wechselhaftes, recht mildes und zeitweise nasses Westwindwetter. Dabei kann die Schneefallgrenze vorübergehend mal auf um die 1000 Meter sinken. In den Niederungen bleibt der Winter aber auch weiterhin außen vor.

 
wetterstationen
wetterstationen
- derzeit 81 Stationen
wetterstationen
wetterstationen
- kartographische Darstellung
niederschlagsdatenbank
niederschlagsstationen
- derzeit 111 Stationen
niederschlagsdatenbank
niederschlagsstationen
- kartographische Darstellung
webcams
interessante webcams
im Vorhersagegebiet
 
Fr. 24.01.2020 - 7.30 Uhr (MEZ)
1.Bad Waldsee-Haisterkirch
Zur Spitzenkapelle 1
1 cm
2.Bad Schussenried
Konradstraße
Schneereste
3.Herbertingen
Drosselweg
Reste
4.Eberhardzell
Lilienweg
Reste
 
 besucherzahl
45.762.011



 
  treffpunkt & service
zugriffe:
insgesamt: 45.762.011
aktueller monat: 250.571
heute: 1.049
momentan online: 57
 
 
monatshöchstwert: 653.625
vorheriger monat: 318.382
gestern: 11.889
tageshöchstwert: 51.297
 
wetterwarte süd
 
konradstraße 3
info@wetterwarte-sued.com
roland roth
 
88427 bad schussenried